DW4589 Weather Reports


time (UTC)temp
F
wind
direction
speed
knots
gust
knots
rain 1hr
in
rain 24hr
in
rain mn
in
humidity
%
barometer
mb
20260508231003 65 255 0.9 9.6 0.00 0.00 0.00 52 1009.5
20260508230502 65 275 2.6 9.6 0.00 0.00 0.00 50 1009.5
20260508230015 66 232 2.6 7.8 0.00 0.00 0.00 50 1009.4
20260508225507 66 206 1.7 3.5 0.00 0.00 0.00 47 1009.4
20260508225008 66 223 1.7 3.5 0.00 0.00 0.00 46 1009.4
20260508224520 66 236 0.9 5.2 0.00 0.00 0.00 47 1009.3
20260508224009 66 238 0.9 5.2 0.00 0.00 0.00 47 1009.4
20260508223507 66 248 2.6 4.3 0.00 0.00 0.00 46 1009.4
20260508223038 66 225 1.7 6.1 0.00 0.00 0.00 46 1009.4
20260508222510 66 217 2.6 6.1 0.00 0.00 0.00 47 1009.4
20260508222012 66 234 0.9 2.6 0.00 0.00 0.00 47 1009.4
20260508221526 66 203 0.9 4.3 0.00 0.00 0.00 48 1009.4
20260508221011 66 235 1.7 4.3 0.00 0.00 0.00 47 1009.4
20260508220510 66 198 2.6 4.3 0.00 0.00 0.00 46 1009.4
20260508220011 66 215 1.7 7.0 0.00 0.00 0.00 46 1009.4
20260508215503 66 226 3.5 7.0 0.00 0.00 0.00 46 1009.4
20260508215004 66 153 1.7 3.5 0.00 0.00 0.00 45 1009.3
20260508214526 66 235 0.9 2.6 0.00 0.00 0.00 46 1009.3
20260508214009 66 222 0.0 2.6 0.00 0.00 0.00 47 1009.3
20260508213508 66 202 0.9 3.5 0.00 0.00 0.00 47 1009.4
20260508213023 66 259 0.9 4.3 0.00 0.00 0.00 47 1009.4
20260508212508 66 237 2.6 4.3 0.00 0.00 0.00 44 1009.6
20260508212009 66 228 2.6 6.1 0.00 0.00 0.00 45 1009.5
20260508211527 66 241 2.6 8.7 0.00 0.00 0.00 43 1009.6
20260508211014 66 238 5.2 8.7 0.00 0.00 0.00 43 1009.7
20260508210511 66 272 3.5 5.2 0.00 0.00 0.00 44 1009.8
20260508210028 66 270 1.7 6.1 0.00 0.00 0.00 45 1009.9
20260508205510 66 229 2.6 8.7 0.00 0.00 0.00 44 1009.8
20260508205012 66 236 3.5 8.7 0.00 0.00 0.00 44 1010.1
20260508204517 66 311 3.5 10.4 0.00 0.00 0.00 45 1010.2
20260508204003 67 228 3.5 10.4 0.00 0.00 0.00 43 1010.2
20260508203508 67 213 3.5 7.0 0.00 0.00 0.00 44 1010.2
20260508203012 67 229 1.7 8.7 0.00 0.00 0.00 44 1010.2
20260508202504 66 255 5.2 8.7 0.00 0.00 0.00 43 1010.2
20260508202002 66 248 2.6 7.8 0.00 0.00 0.00 44 1010.4
20260508201510 66 360 4.3 9.6 0.00 0.00 0.00 42 1010.4
20260508201005 66 288 4.3 7.0 0.00 0.00 0.00 43 1010.4
20260508200503 66 224 1.7 7.8 0.00 0.00 0.00 43 1010.4
20260508200009 66 288 2.6 9.6 0.00 0.00 0.00 43 1010.5
20260508195504 66 246 2.6 9.6 0.00 0.00 0.00 42 1010.6
20260508195003 67 251 5.2 9.6 0.00 0.00 0.00 41 1010.6
20260508194517 67 250 4.3 12.2 0.00 0.00 0.00 41 1010.6
20260508194004 67 223 7.0 11.3 0.00 0.00 0.00 42 1010.6
20260508193504 67 244 2.6 17.4 0.00 0.00 0.00 42 1010.7
20260508193020 67 213 7.0 17.4 0.00 0.00 0.00 39 1010.7
20260508192510 67 225 7.8 15.6 0.00 0.00 0.00 43 1010.8
20260508192003 67 246 5.2 10.4 0.00 0.00 0.00 42 1010.9
20260508191503 68 225 5.2 9.6 0.00 0.00 0.00 41 1010.9
20260508191003 68 220 4.3 8.7 0.00 0.00 0.00 41 1010.9
20260508190504 67 219 5.2 12.2 0.00 0.00 0.00 41 1011.1
20260508190021 67 209 4.3 12.2 0.00 0.00 0.00 43 1011.3
20260508185504 67 225 4.3 8.7 0.00 0.00 0.00 43 1011.4
20260508185005 67 250 4.3 13.9 0.00 0.00 0.00 44 1011.6
20260508184524 67 265 7.0 13.9 0.00 0.00 0.00 41 1011.5
20260508184007 68 222 6.1 13.9 0.00 0.00 0.00 43 1011.6
20260508183507 68 303 6.1 13.0 0.00 0.00 0.00 42 1011.6
20260508183028 68 279 7.0 13.9 0.00 0.00 0.00 44 1011.7
20260508182505 67 243 5.2 13.9 0.00 0.00 0.00 47 1011.9
20260508182009 67 318 4.3 11.3 0.00 0.00 0.00 46 1012.1
20260508181522 67 193 2.6 11.3 0.00 0.00 0.00 43 1012.0
20260508181008 67 209 3.5 11.3 0.00 0.00 0.00 42 1012.0
20260508180503 67 257 5.2 12.2 0.00 0.00 0.00 46 1012.0
20260508180004 66 286 4.3 13.9 0.00 0.00 0.00 46 1012.1
20260508175504 66 232 8.7 13.9 0.00 0.00 0.00 42 1012.1
20260508175004 65 207 6.1 13.0 0.00 0.00 0.00 45 1012.1
20260508174511 65 225 4.3 9.6 0.00 0.00 0.00 46 1012.3
20260508174006 65 232 5.2 9.6 0.00 0.00 0.00 47 1012.4
20260508173506 65 260 4.3 10.4 0.00 0.00 0.00 45 1012.6
20260508173017 65 280 7.0 10.4 0.00 0.00 0.00 47 1012.7
20260508172508 66 227 7.0 10.4 0.00 0.00 0.00 45 1012.8
20260508172008 66 208 4.3 9.6 0.00 0.00 0.00 47 1012.8
20260508171524 66 244 7.0 10.4 0.00 0.00 0.00 44 1012.9
20260508171016 66 222 6.1 10.4 0.00 0.00 0.00 46 1013.0
20260508170508 67 273 6.1 12.2 0.00 0.00 0.00 46 1013.1
20260508170033 67 274 7.8 12.2 0.00 0.00 0.00 47 1013.2
20260508165503 67 234 6.1 13.0 0.00 0.00 0.00 46 1013.2
20260508165005 67 267 7.8 13.0 0.00 0.00 0.00 48 1013.4
20260508164520 66 253 6.1 12.2 0.00 0.00 0.00 46 1013.4
20260508164007 66 262 7.8 12.2 0.00 0.00 0.00 47 1013.5
20260508163504 66 229 5.2 12.2 0.00 0.00 0.00 49 1013.4
20260508163016 66 174 6.1 10.4 0.00 0.00 0.00 47 1013.5
20260508162508 66 240 4.3 10.4 0.00 0.00 0.00 49 1013.5
20260508162007 65 238 6.1 13.9 0.00 0.00 0.00 50 1013.6
20260508161520 65 247 5.2 13.9 0.00 0.00 0.00 50 1013.6
20260508161009 65 264 5.2 13.0 0.00 0.00 0.00 49 1013.7
20260508160510 65 254 5.2 13.0 0.00 0.00 0.00 50 1013.8
20260508160025 64 302 6.1 10.4 0.00 0.00 0.00 47 1013.9
20260508155509 64 229 6.1 11.3 0.00 0.00 0.00 54 1013.9
20260508155011 64 265 5.2 12.2 0.00 0.00 0.00 52 1013.8
20260508154506 64 230 6.1 12.2 0.00 0.00 0.00 51 1013.9
20260508154004 64 208 5.2 11.3 0.00 0.00 0.00 52 1013.9
20260508153505 64 266 4.3 13.9 0.00 0.00 0.00 52 1014.0
20260508153027 63 248 6.1 13.9 0.00 0.00 0.00 50 1013.9
20260508152507 63 246 5.2 12.2 0.00 0.00 0.00 52 1014.0
20260508152010 63 292 6.1 11.3 0.00 0.00 0.00 51 1014.1
20260508151520 63 252 4.3 12.2 0.00 0.00 0.00 54 1014.0
20260508151008 62 276 4.3 12.2 0.00 0.00 0.00 50 1014.1
20260508150509 62 241 6.1 12.2 0.00 0.00 0.00 51 1014.1
20260508150026 63 247 4.3 10.4 0.00 0.00 0.00 53 1014.2
20260508145507 62 221 3.5 12.2 0.00 0.00 0.00 54 1014.2
20260508145009 62 264 6.1 12.2 0.00 0.00 0.00 51 1014.2
20260508144529 62 303 2.6 10.4 0.00 0.00 0.00 55 1014.2
20260508144006 61 271 2.6 8.7 0.00 0.00 0.00 54 1014.3
20260508143506 61 295 4.3 10.4 0.00 0.00 0.00 50 1014.5
20260508143012 60 248 5.2 11.3 0.00 0.00 0.00 52 1014.5
20260508142504 60 228 6.1 11.3 0.00 0.00 0.00 53 1014.5
20260508142012 60 286 4.3 12.2 0.00 0.00 0.00 53 1014.6
20260508141516 59 242 5.2 12.2 0.00 0.00 0.00 53 1014.7
20260508141008 59 215 3.5 7.0 0.00 0.00 0.00 58 1014.8
20260508140504 58 236 3.5 6.1 0.00 0.00 0.00 55 1014.8
20260508140023 57 277 2.6 5.2 0.00 0.00 0.00 56 1014.7
20260508135507 56 244 0.9 5.2 0.00 0.00 0.00 60 1014.9
20260508135010 56 202 1.7 7.0 0.00 0.00 0.00 58 1014.9
20260508134523 55 243 3.5 7.0 0.00 0.00 0.00 60 1014.9
20260508134008 55 264 0.9 4.3 0.00 0.00 0.00 61 1015.0
20260508133510 55 211 0.9 5.2 0.00 0.00 0.00 61 1015.0
20260508133027 54 207 2.6 7.0 0.00 0.00 0.00 57 1015.0
20260508132510 54 269 1.7 7.0 0.00 0.00 0.00 60 1015.1
20260508132003 54 230 2.6 5.2 0.00 0.00 0.00 60 1015.0
20260508131516 54 192 1.7 4.3 0.00 0.00 0.00 62 1015.0
20260508131006 53 216 2.6 4.3 0.00 0.00 0.00 61 1015.0
20260508130507 53 221 0.9 4.3 0.00 0.00 0.00 63 1014.8
20260508130031 52 218 1.7 6.1 0.00 0.00 0.00 63 1014.8
20260508125508 52 221 3.5 6.1 0.00 0.00 0.00 61 1014.9
20260508125008 52 237 2.6 4.3 0.00 0.00 0.00 65 1014.9
20260508124524 51 169 1.7 3.5 0.00 0.00 0.00 65 1014.9
20260508124010 51 229 1.7 3.5 0.00 0.00 0.00 1014.9
20260508123508 51 240 0.9 3.5 0.00 0.00 0.00 66 1014.8
20260508123028 50 217 1.7 3.5 0.00 0.00 0.00 66 1014.8
20260508122513 50 225 0.9 3.5 0.00 0.00 0.00 65 1014.7
20260508122012 50 229 0.9 3.5 0.00 0.00 0.00 66 1014.7
20260508121530 49 225 0.0 4.3 0.00 0.00 0.00 67 1014.7
20260508121004 48 215 2.6 4.3 0.00 0.00 0.00 68 1014.8
20260508120503 48 229 1.7 4.3 0.00 0.00 0.00 70 1014.7
20260508120017 47 219 0.0 3.5 0.00 0.00 0.00 72 1014.7
20260508115504 47 205 0.9 3.5 0.00 0.00 0.00 72 1014.6
20260508115006 46 173 0.0 1.7 0.00 0.00 0.00 74 1014.6
20260508114523 46 200 0.9 4.3 0.00 0.00 0.00 73 1014.6
20260508114011 46 184 0.0 4.3 0.00 0.00 0.00 74 1014.5
20260508113504 45 165 0.0 1.7 0.00 0.00 0.00 75 1014.5
20260508113005 45 219 0.0 1.7 0.00 0.00 0.00 76 1014.4
20260508112505 45 218 0.0 1.7 0.00 0.00 0.00 77 1014.4
20260508112003 45 219 0.0 1.7 0.00 0.00 0.00 77 1014.3
20260508111507 45 218 0.0 1.7 0.00 0.00 0.00 78 1014.2
20260508111004 45 219 0.0 1.7 0.00 0.00 0.00 77 1014.2
20260508110502 45 218 0.0 1.7 0.00 0.00 0.00 78 1014.1
20260508110004 44 219 0.0 1.7 0.00 0.00 0.00 78 1014.1
20260508105504 44 219 0.0 1.7 0.00 0.00 0.00 77 1014.1
20260508105003 44 192 0.0 1.7 0.00 0.00 0.00 80 1014.1
20260508104504 44 192 0.0 1.7 0.00 0.00 0.00 80 1014.2
20260508104003 44 192 0.0 1.7 0.00 0.00 0.00 80 1014.3
20260508103503 43 192 0.0 1.7 0.00 0.00 0.00 79 1014.3
20260508103010 43 192 0.0 1.7 0.00 0.00 0.00 79 1014.2
20260508102502 43 192 0.0 1.7 0.00 0.00 0.00 80 1014.2
20260508102003 43 164 0.0 1.7 0.00 0.00 0.00 80 1014.2
20260508101504 43 164 0.0 1.7 0.00 0.00 0.00 82 1014.1
20260508101002 43 164 0.0 1.7 0.00 0.00 0.00 82 1014.2
20260508100503 43 164 0.0 1.7 0.00 0.00 0.00 82 1014.2
20260508100004 43 164 0.0 1.7 0.00 0.00 0.00 82 1014.3
20260508095506 43 164 0.0 1.7 0.00 0.00 0.00 81 1014.3
20260508095004 43 164 0.0 1.7 0.00 0.00 0.00 81 1014.3
20260508094509 43 164 0.0 1.7 0.00 0.00 0.00 80 1014.3
20260508094003 43 164 0.0 0.9 0.00 0.00 0.00 80 1014.3
20260508093503 43 164 0.0 1.7 0.00 0.00 0.00 80 1014.3
20260508093008 43 164 0.0 1.7 0.00 0.00 0.00 81 1014.4
20260508092503 43 164 0.0 1.7 0.00 0.00 0.00 81 1014.3
20260508092007 43 164 0.0 1.7 0.00 0.00 0.00 80 1014.2
20260508091514 43 168 0.0 1.7 0.00 0.00 0.00 80 1014.3
20260508091003 43 204 0.0 1.7 0.00 0.00 0.00 79 1014.3
20260508090503 42 219 0.0 1.7 0.00 0.00 0.00 80 1014.3
20260508090010 42 220 0.0 1.7 0.00 0.00 0.00 81 1014.2
20260508085505 42 222 0.0 0.0 0.00 0.00 0.00 81 1014.2
20260508085003 42 170 0.0 0.0 0.00 0.00 0.00 80 1014.1
20260508084509 42 170 0.0 0.0 0.00 0.00 0.00 78 1014.4
20260508084003 42 170 0.0 0.0 0.00 0.00 0.00 77 1014.4
20260508083503 42 170 0.0 0.0 0.00 0.00 0.00 76 1014.3
20260508083012 42 170 0.0 0.0 0.00 0.00 0.00 76 1014.2
20260508082505 42 170 0.0 0.0 0.00 0.00 0.00 76 1014.2
20260508082008 42 170 0.0 0.0 0.00 0.00 0.00 75 1014.1
20260508081511 42 170 0.0 0.0 0.00 0.00 0.00 75 1014.0
20260508081004 42 228 0.0 0.0 0.00 0.00 0.00 75 1014.1
20260508080503 42 228 0.0 3.5 0.00 0.00 0.00 75 1014.1
20260508080012 42 228 0.0 3.5 0.00 0.00 0.00 75 1014.1
20260508075503 42 211 0.0 1.7 0.00 0.00 0.00 76 1014.1
20260508075002 42 142 0.0 1.7 0.00 0.00 0.00 76 1014.1
20260508074514 42 142 0.0 1.7 0.00 0.00 0.00 75 1014.0
20260508074001 42 128 0.0 1.7 0.00 0.00 0.00 75 1014.0
20260508073507 42 174 0.0 1.7 0.00 0.00 0.00 75 1014.0
20260508073012 42 260 0.0 1.7 0.00 0.00 0.00 76 1014.1
20260508072506 42 184 0.0 0.0 0.00 0.00 0.00 76 1014.1
20260508072006 42 184 0.0 1.7 0.00 0.00 0.00 77 1014.1
20260508071516 42 184 0.0 2.6 0.00 0.00 0.00 77 1014.1
20260508071003 42 184 0.0 3.5 0.00 0.00 0.00 78 1014.1
20260508070503 41 184 0.9 3.5 0.00 0.00 0.00 79 1014.1
20260508070012 41 114 0.0 1.7 0.00 0.00 0.00 79 1014.2
20260508065504 41 146 0.0 1.7 0.00 0.00 0.00 80 1014.3
20260508065003 41 161 0.0 1.7 0.00 0.00 0.00 80 1014.4
20260508064512 41 270 0.0 1.7 0.00 0.00 0.00 81 1014.5
20260508064006 41 270 0.0 1.7 0.00 0.00 0.00 81 1014.6
20260508063503 41 270 0.0 1.7 0.00 0.00 0.00 81 1014.7
20260508063014 41 270 0.0 1.7 0.00 0.00 0.00 80 1014.6
20260508062506 41 270 0.0 1.7 0.00 0.00 0.00 79 1014.7
20260508062003 41 270 0.0 1.7 0.00 0.00 0.00 79 1014.8
20260508061514 41 270 0.0 0.9 0.00 0.00 0.00 79 1014.7
20260508061003 42 270 0.0 0.0 0.00 0.00 0.00 79 1014.8
20260508060507 42 269 0.0 0.0 0.00 0.00 0.00 79 1014.7
20260508060012 42 269 0.0 0.0 0.00 0.00 0.00 79 1014.7
20260508055505 42 270 0.0 0.0 0.00 0.00 0.00 78 1014.7
20260508055008 42 270 0.0 0.0 0.00 0.00 0.00 77 1014.9
20260508054511 42 270 0.0 0.0 0.00 0.00 0.00 77 1014.8
20260508054006 42 270 0.0 0.0 0.00 0.00 0.00 76 1014.8
20260508053505 42 270 0.0 0.0 0.00 0.00 0.00 76 1014.9
20260508053013 42 269 0.0 0.0 0.00 0.00 0.00 76 1014.7
20260508052504 42 270 0.0 0.0 0.00 0.00 0.00 77 1014.7
20260508052003 42 270 0.0 0.0 0.00 0.00 0.00 78 1014.7
20260508051514 42 270 0.0 0.0 0.00 0.00 0.00 78 1014.6
20260508051007 43 270 0.0 0.0 0.00 0.00 0.00 78 1014.6
20260508050506 43 270 0.0 0.0 0.00 0.00 0.00 78 1014.7
20260508050018 43 270 0.0 0.0 0.00 0.00 0.00 76 1014.7
20260508045505 43 270 0.0 0.0 0.00 0.00 0.00 75 1014.7
20260508045006 43 270 0.0 0.0 0.00 0.00 0.00 75 1014.6
20260508044514 43 270 0.0 1.7 0.00 0.00 0.00 76 1014.6
20260508044004 43 270 0.0 1.7 0.00 0.00 0.00 77 1014.6
20260508043506 43 270 0.0 1.7 0.00 0.00 0.00 76 1014.6
20260508043016 43 270 0.0 1.7 0.00 0.00 0.00 75 1014.6
20260508042504 43 270 0.0 1.7 0.00 0.00 0.00 77 1014.6
20260508042010 43 270 0.0 1.7 0.00 0.00 0.00 75 1014.6
20260508041515 43 270 0.0 1.7 0.00 0.00 0.00 75 1014.5
20260508041006 43 270 0.0 1.7 0.00 0.00 0.00 75 1014.4
20260508040507 43 270 0.0 0.9 0.00 0.00 0.00 76 1014.4
20260508040026 43 270 0.0 0.0 0.00 0.00 0.00 75 1014.5
20260508035505 43 270 0.0 0.0 0.00 0.00 0.00 76 1014.4
20260508035007 44 270 0.0 0.0 0.00 0.00 0.00 76 1014.4
20260508034520 44 270 0.0 0.0 0.00 0.00 0.00 77 1014.4
20260508034004 44 270 0.0 0.0 0.00 0.00 0.00 76 1014.5
20260508033503 44 270 0.0 0.0 0.00 0.00 0.00 75 1014.4
20260508033019 44 270 0.0 0.0 0.00 0.00 0.00 75 1014.6
20260508032507 43 270 0.0 0.0 0.00 0.00 0.00 76 1014.6
20260508032006 43 270 0.0 0.0 0.00 0.00 0.00 77 1014.5
20260508031517 43 270 0.0 0.0 0.00 0.00 0.00 77 1014.4
20260508031008 43 270 0.0 0.0 0.00 0.00 0.00 79 1014.3
20260508030503 43 270 0.0 0.0 0.00 0.00 0.00 80 1014.3
20260508030025 43 270 0.0 0.0 0.00 0.00 0.00 80 1014.3
20260508025506 43 270 0.0 0.0 0.00 0.00 0.00 79 1014.4
20260508025007 43 270 0.0 0.0 0.00 0.00 0.00 78 1014.5
20260508024520 43 269 0.0 0.9 0.00 0.00 0.00 79 1014.5
20260508024004 43 270 0.0 1.7 0.00 0.00 0.00 79 1014.5
20260508023503 43 270 0.9 1.7 0.00 0.00 0.00 79 1014.4
20260508023008 43 269 0.0 1.7 0.00 0.00 0.00 78 1014.5
20260508022508 44 269 0.9 1.7 0.00 0.00 0.00 79 1014.4
20260508022004 44 270 0.0 1.7 0.00 0.00 0.00 78 1014.4
20260508021514 44 270 0.0 1.7 0.00 0.00 0.00 78 1014.5
20260508021007 44 270 0.0 1.7 0.00 0.00 0.00 77 1014.4
20260508020506 44 270 0.0 0.9 0.00 0.00 0.00 75 1014.3
20260508020027 44 269 0.9 0.9 0.00 0.00 0.00 74 1014.3
20260508015511 45 270 0.0 0.9 0.00 0.00 0.00 74 1014.4
20260508015007 45 270 0.0 1.7 0.00 0.00 0.00 74 1014.3
20260508014504 46 270 0.0 1.7 0.00 0.00 0.00 74 1014.4
20260508014004 46 269 0.0 0.0 0.00 0.00 0.00 74 1014.4
20260508013502 47 270 0.0 0.0 0.00 0.00 0.00 73 1014.4
20260508013007 47 270 0.0 0.0 0.00 0.00 0.00 72 1014.4
20260508012508 47 270 0.0 0.0 0.00 0.00 0.00 72 1014.4
20260508012004 48 270 0.0 0.0 0.00 0.00 0.00 70 1014.3
20260508011513 48 269 0.0 0.0 0.00 0.00 0.00 70 1014.3
20260508011004 49 269 0.0 0.0 0.00 0.00 0.00 68 1014.3
20260508010504 49 270 0.0 0.0 0.00 0.00 0.00 67 1014.3
20260508010018 50 270 0.0 0.0 0.00 0.00 0.00 67 1014.3
20260508005507 51 270 0.0 1.7 0.00 0.00 0.00 65 1014.2
20260508005006 51 270 0.0 1.7 0.00 0.00 0.00 63 1014.2
20260508004520 52 270 0.0 1.7 0.00 0.00 0.00 60 1014.2
20260508004010 53 270 0.0 1.7 0.00 0.00 0.00 54 1014.2
20260508003508 54 270 0.0 1.7 0.00 0.00 0.00 53 1014.2
20260508003006 55 270 0.0 1.7 0.00 0.00 0.00 51 1014.2
20260508002504 56 270 0.0 1.7 0.00 0.00 0.00 48 1014.2
20260508002004 56 270 0.0 1.7 0.00 0.00 0.00 46 1014.1
20260508001519 57 270 0.0 1.7 0.00 0.00 0.00 43 1014.1
20260508001004 57 264 0.9 1.7 0.00 0.00 0.00 43 1014.1
20260508000507 57 276 0.9 4.3 0.00 0.00 0.00 42 1014.2
20260508000016 57 264 0.9 6.1 0.00 0.00 0.00 41 1014.1
20260507235504 58 261 1.7 6.1 0.00 0.00 0.00 41 1014.1
20260507235006 58 261 3.5 6.1 0.00 0.00 0.00 40 1014.1
20260507234519 58 237 2.6 5.2 0.00 0.00 0.00 40 1014.1
20260507234051 58 272 3.5 5.2 0.00 0.00 0.00 42 1014.0
20260507233507 59 294 1.7 4.3 0.00 0.00 0.00 39 1014.0
20260507233025 59 295 1.7 6.1 0.00 0.00 0.00 40 1013.9
20260507232511 59 311 1.7 6.1 0.00 0.00 0.00 40 1013.9
20260507232011 59 288 0.9 7.0 0.00 0.00 0.00 41 1013.7
20260507231507 59 271 2.6 7.0 0.00 0.00 0.00 41 1013.8